TimeEST,TemperatureF,Dew PointF,Humidity,Sea Level PressureIn,VisibilityMPH,Wind Direction,Wind SpeedMPH,Gust SpeedMPH,PrecipitationIn,Events,Conditions,WindDirDegrees,DateUTC
12:00 AM,39.0,37.6,95,30.00,7.0,Calm,Calm,-,N/A,,Clear,0,2013-12-04 05:00:00
12:20 AM,39.9,37.8,92,30.00,10.0,Calm,Calm,-,N/A,,Clear,0,2013-12-04 05:20:00
12:40 AM,39.9,37.6,91,30.01,10.0,Calm,Calm,-,N/A,,Clear,0,2013-12-04 05:40:00
1:00 AM,39.4,37.4,93,30.01,10.0,Calm,Calm,-,N/A,,Clear,0,2013-12-04 06:00:00
1:20 AM,39.4,37.6,93,30.01,10.0,Calm,Calm,-,N/A,,Clear,0,2013-12-04 06:20:00
1:40 AM,39.4,37.2,92,30.00,10.0,Calm,Calm,-,N/A,,Clear,0,2013-12-04 06:40:00
2:05 AM,38.8,36.9,93,30.01,10.0,Calm,Calm,-,N/A,,Clear,0,2013-12-04 07:05:00
2:25 AM,38.7,37.2,95,30.01,7.0,Calm,Calm,-,N/A,,Clear,0,2013-12-04 07:25:00
2:45 AM,38.7,37.0,94,30.02,7.0,Calm,Calm,-,N/A,,Scattered Clouds,0,2013-12-04 07:45:00
3:05 AM,38.8,37.4,95,30.02,7.0,Calm,Calm,-,N/A,,Scattered Clouds,0,2013-12-04 08:05:00
3:25 AM,39.4,37.6,93,30.03,7.0,Calm,Calm,-,N/A,,Mostly Cloudy,0,2013-12-04 08:25:00
3:45 AM,40.5,38.3,92,30.02,10.0,Calm,Calm,-,N/A,,Overcast,0,2013-12-04 08:45:00
4:05 AM,41.4,38.1,88,30.03,10.0,Calm,Calm,-,N/A,,Overcast,0,2013-12-04 09:05:00
4:25 AM,41.9,38.1,86,30.03,10.0,Calm,Calm,-,N/A,,Overcast,0,2013-12-04 09:25:00
4:45 AM,41.0,37.4,87,30.02,10.0,Calm,Calm,-,N/A,,Scattered Clouds,0,2013-12-04 09:45:00
5:05 AM,39.9,37.0,89,30.02,7.0,Calm,Calm,-,N/A,,Clear,0,2013-12-04 10:05:00
5:25 AM,38.8,37.0,93,30.03,7.0,Calm,Calm,-,N/A,,Clear,0,2013-12-04 10:25:00
5:45 AM,37.9,36.7,95,30.03,7.0,Calm,Calm,-,N/A,,Clear,0,2013-12-04 10:45:00
6:05 AM,37.2,36.3,97,30.03,5.0,Calm,Calm,-,N/A,,Scattered Clouds,0,2013-12-04 11:05:00
6:25 AM,37.2,36.3,97,30.04,5.0,Calm,Calm,-,N/A,,Clear,0,2013-12-04 11:25:00
6:45 AM,37.8,36.9,97,30.05,5.0,Calm,Calm,-,N/A,,Mostly Cloudy,0,2013-12-04 11:45:00
7:05 AM,40.1,39.0,96,30.05,7.0,Calm,Calm,-,N/A,,Overcast,0,2013-12-04 12:05:00
7:25 AM,39.9,38.3,94,30.05,5.0,Calm,Calm,-,N/A,,Overcast,0,2013-12-04 12:25:00
7:40 AM,41.5,39.6,93,30.06,5.0,NNW,3.5,-,N/A,,Overcast,340,2013-12-04 12:40:00
8:05 AM,42.3,39.4,90,30.06,5.0,Calm,Calm,-,N/A,,Overcast,0,2013-12-04 13:05:00
8:25 AM,42.8,39.7,89,30.07,7.0,Calm,Calm,-,N/A,,Overcast,0,2013-12-04 13:25:00
8:45 AM,43.7,40.1,87,30.07,7.0,Calm,Calm,-,N/A,,Overcast,0,2013-12-04 13:45:00
9:05 AM,44.4,40.5,86,30.07,7.0,Calm,Calm,-,N/A,,Overcast,0,2013-12-04 14:05:00
9:25 AM,45.5,41.0,84,30.07,7.0,Calm,Calm,-,N/A,,Overcast,0,2013-12-04 14:25:00
9:45 AM,46.8,41.5,82,30.08,7.0,Calm,Calm,-,N/A,,Overcast,0,2013-12-04 14:45:00
10:05 AM,48.4,42.3,79,30.09,7.0,Calm,Calm,-,N/A,,Overcast,0,2013-12-04 15:05:00
10:25 AM,49.1,42.3,77,30.09,10.0,Calm,Calm,-,N/A,,Overcast,0,2013-12-04 15:25:00
10:45 AM,50.0,42.6,76,30.09,10.0,Calm,Calm,-,N/A,,Overcast,0,2013-12-04 15:45:00
11:05 AM,50.9,42.8,74,30.09,10.0,Calm,Calm,-,N/A,,Overcast,0,2013-12-04 16:05:00
11:25 AM,51.6,43.5,74,30.08,10.0,Calm,Calm,-,N/A,,Overcast,0,2013-12-04 16:25:00
11:45 AM,53.1,44.2,72,30.07,10.0,Calm,Calm,-,N/A,,Overcast,0,2013-12-04 16:45:00
12:05 PM,53.6,44.4,71,30.07,10.0,Calm,Calm,-,N/A,,Overcast,0,2013-12-04 17:05:00
12:25 PM,54.3,45.0,71,30.06,10.0,Calm,Calm,-,N/A,,Overcast,0,2013-12-04 17:25:00
12:45 PM,54.7,45.5,71,30.06,10.0,Calm,Calm,-,N/A,,Overcast,0,2013-12-04 17:45:00
1:05 PM,55.4,45.9,70,30.05,10.0,Calm,Calm,-,N/A,,Overcast,0,2013-12-04 18:05:00
1:25 PM,55.8,46.2,70,30.04,10.0,Calm,Calm,-,N/A,,Overcast,0,2013-12-04 18:25:00
1:45 PM,56.3,46.6,70,30.03,10.0,Calm,Calm,-,N/A,,Overcast,0,2013-12-04 18:45:00
2:05 PM,57.0,46.6,68,30.03,10.0,Calm,Calm,-,N/A,,Overcast,0,2013-12-04 19:05:00
2:25 PM,57.2,46.8,68,30.03,10.0,ESE,3.5,-,N/A,,Overcast,120,2013-12-04 19:25:00
2:45 PM,57.4,47.5,70,30.02,10.0,East,3.5,-,N/A,,Overcast,80,2013-12-04 19:45:00
3:05 PM,57.2,46.8,68,30.02,10.0,East,3.5,-,N/A,,Overcast,80,2013-12-04 20:05:00
3:25 PM,56.8,47.1,70,30.02,10.0,East,4.6,-,N/A,,Overcast,90,2013-12-04 20:25:00
3:45 PM,56.3,47.5,72,30.02,10.0,East,3.5,-,N/A,,Overcast,100,2013-12-04 20:45:00
4:05 PM,56.3,47.3,72,30.03,10.0,ESE,4.6,-,N/A,,Overcast,110,2013-12-04 21:05:00
4:25 PM,55.4,47.3,74,30.03,10.0,East,4.6,-,N/A,,Overcast,90,2013-12-04 21:25:00
4:45 PM,55.0,47.7,76,30.03,10.0,Calm,Calm,-,N/A,,Overcast,0,2013-12-04 21:45:00
5:05 PM,54.9,48.4,79,30.04,10.0,Calm,Calm,-,N/A,,Overcast,0,2013-12-04 22:05:00
5:25 PM,54.7,49.1,81,30.05,10.0,Calm,Calm,-,N/A,,Overcast,0,2013-12-04 22:25:00
5:45 PM,54.5,49.1,82,30.06,10.0,Calm,Calm,-,N/A,,Overcast,0,2013-12-04 22:45:00
6:05 PM,54.1,49.3,84,30.07,10.0,Calm,Calm,-,N/A,,Overcast,0,2013-12-04 23:05:00
6:25 PM,53.8,49.5,85,30.07,10.0,Calm,Calm,-,N/A,,Overcast,0,2013-12-04 23:25:00
6:45 PM,53.6,49.5,86,30.07,10.0,Calm,Calm,-,N/A,,Overcast,0,2013-12-04 23:45:00
7:05 PM,53.6,49.5,86,30.07,10.0,Calm,Calm,-,N/A,,Overcast,0,2013-12-05 00:05:00
7:25 PM,53.2,49.6,88,30.07,10.0,Calm,Calm,-,N/A,,Overcast,0,2013-12-05 00:25:00
7:45 PM,53.2,50.0,89,30.07,10.0,Calm,Calm,-,N/A,,Overcast,0,2013-12-05 00:45:00
8:05 PM,52.9,49.6,89,30.07,10.0,Calm,Calm,-,N/A,,Overcast,0,2013-12-05 01:05:00
8:25 PM,53.1,50.0,89,30.08,10.0,Calm,Calm,-,N/A,,Overcast,0,2013-12-05 01:25:00
8:45 PM,52.9,50.0,90,30.08,10.0,Calm,Calm,-,N/A,,Overcast,0,2013-12-05 01:45:00
9:05 PM,52.7,50.0,91,30.08,10.0,Calm,Calm,-,N/A,,Overcast,0,2013-12-05 02:05:00
9:25 PM,52.7,50.2,91,30.09,7.0,Calm,Calm,-,N/A,,Overcast,0,2013-12-05 02:25:00
9:45 PM,52.5,50.2,92,30.09,7.0,Calm,Calm,-,N/A,,Overcast,0,2013-12-05 02:45:00
10:05 PM,52.0,49.8,92,30.09,7.0,Calm,Calm,-,N/A,,Overcast,0,2013-12-05 03:05:00
10:25 PM,52.2,50.0,92,30.09,7.0,Calm,Calm,-,N/A,,Overcast,0,2013-12-05 03:25:00
10:45 PM,52.0,50.0,93,30.08,7.0,Calm,Calm,-,N/A,,Overcast,0,2013-12-05 03:45:00
11:05 PM,51.8,50.2,94,30.07,7.0,Calm,Calm,-,N/A,,Overcast,0,2013-12-05 04:05:00
11:25 PM,52.3,50.7,94,30.08,7.0,Calm,Calm,-,N/A,,Overcast,0,2013-12-05 04:25:00
11:45 PM,52.7,50.5,92,30.09,7.0,Calm,Calm,-,N/A,,Overcast,0,2013-12-05 04:45:00